CST,Max TemperatureF,Mean TemperatureF,Min TemperatureF,Max Dew PointF,MeanDew PointF,Min DewpointF,Max Humidity, Mean Humidity, Min Humidity, Max Sea Level PressureIn, Mean Sea Level PressureIn, Min Sea Level PressureIn, Max VisibilityMiles, Mean VisibilityMiles, Min VisibilityMiles, Max Wind SpeedMPH, Mean Wind SpeedMPH, Max Gust SpeedMPH,PrecipitationIn, CloudCover, Events, WindDirDegrees
2013-11-1,55,48,41,39,37,36,81,73,47,30.01,29.78,29.57,10,10,10,29,15,36,0.01,4,,293
2013-11-2,57,45,33,36,31,28,87,64,33,30.14,30.07,29.99,10,10,10,13,9,18,0.00,1,,241
2013-11-3,59,49,39,36,32,28,70,55,39,29.98,29.76,29.60,10,10,10,30,15,40,0.00,0,,152
2013-11-4,51,40,30,37,31,25,87,67,38,30.15,29.94,29.70,10,10,10,21,9,24,0.00,1,,292
2013-11-5,37,32,28,32,29,25,93,88,75,30.19,30.11,30.03,10,5,0,22,6,25,0.17,6,,5
2013-11-6,35,30,24,30,28,21,100,89,75,30.23,30.18,30.12,10,8,0,14,9,,0.02,5,,269
2013-11-7,44,35,26,28,26,21,100,73,49,30.39,30.29,30.17,10,10,7,15,7,18,0.01,0,,243
2013-11-8,55,42,28,41,33,23,80,65,54,30.17,29.84,29.63,10,10,10,24,11,31,0.00,0,,189
2013-11-9,51,40,28,36,31,23,86,62,44,30.36,30.12,29.85,10,10,10,21,15,28,0.00,0,,292
2013-11-10,53,38,24,39,29,21,93,71,38,30.38,30.24,30.08,10,10,10,20,6,28,0.00,3,,190
2013-11-11,42,26,10,36,15,7,86,70,50,30.80,30.50,30.10,10,10,2,21,14,30,0.00,1,,335
2013-11-12,37,22,8,19,10,3,92,62,30,30.82,30.67,30.39,10,10,10,15,6,18,0.00,0,,195
2013-11-13,64,45,26,34,28,18,81,56,30,30.38,30.08,29.90,10,10,10,17,10,21,0.00,0,,186
2013-11-14,57,44,30,45,34,25,93,73,41,29.95,29.88,29.85,10,10,10,16,5,21,0.00,1,,268
2013-11-15,57,42,26,41,32,25,100,77,38,29.85,29.70,29.50,10,10,8,20,5,25,0.00,0,,130
2013-11-16,60,48,35,45,34,23,100,66,25,29.50,29.33,29.24,10,9,3,22,8,29,0.00,2,,192
2013-11-17,51,42,33,36,33,28,100,75,50,30.02,29.65,29.37,10,9,1,24,11,30,0.00,2,,288
2013-11-18,46,35,24,30,27,21,100,74,50,30.22,30.13,30.03,10,10,10,13,7,,0.00,0,,100
2013-11-19,60,44,28,32,28,23,86,52,29,30.08,29.87,29.74,10,10,10,23,11,34,0.00,0,,150
2013-11-20,53,42,30,34,29,25,86,54,37,30.03,29.79,29.72,10,10,8,31,11,39,0.00,0,,159
2013-11-21,30,24,17,25,13,7,86,70,59,30.64,30.39,30.06,10,8,2,31,24,38,0.00,5,,326
2013-11-22,33,17,1,14,7,-9,100,64,32,30.68,30.60,30.51,10,10,10,16,10,21,0.00,0,,270
2013-11-23,17,14,10,12,4,-2,86,67,42,30.88,30.78,30.64,10,10,9,15,7,,0.00,2,,347
2013-11-24,42,26,10,25,15,3,85,62,45,30.63,30.29,30.03,10,10,10,25,12,31,0.00,0,,180
2013-11-25,42,33,24,27,25,19,86,70,49,30.20,30.10,29.99,10,10,10,21,13,26,0.00,1,,281
2013-11-26,28,20,12,21,12,5,86,65,40,30.44,30.36,30.20,10,10,10,26,13,32,0.00,1,,317
2013-11-27,37,22,6,21,12,1,100,65,41,30.42,30.15,29.91,10,10,10,22,8,32,0.00,0,,183
2013-11-28,28,22,15,19,17,10,93,71,59,30.44,30.33,30.08,10,10,4,24,14,30,0.00,5,,336
2013-11-29,41,26,12,25,19,9,93,72,49,30.42,30.22,30.04,10,10,8,25,8,33,0.00,0,,134
2013-11-30,46,34,21,30,24,19,100,74,46,30.18,30.09,30.02,10,10,7,13,4,,0.00,0,,314